SL-8 DEB, 1549

Orbit data source: Space-Track

SL-8 DEB, 1549 is space debris in LEO originally from a launch on Mon, 15 Mar 1965 UTC launched from the Tyuratam Missile And Space Complex (TTMTR). Debris objects in space refer to the collection of defunct objects orbiting the Earth. Examples of debris include non-operational satellites, rocket bodies, and fragments generated from explosions, collisions, or faulty payload assembly.

Loading next visibility...
SL-8 DEB details
Identifier
1549, 1965-020CV
Orbit
LEO
Last TLE update17 hours ago
Origin
Flag of CISRVSN (CIS)
ManufacturerUnknown
MissionSpacecraft
Bus & MotorUnknown
MassUnknown
Launch date (UTC)
1965-03-15 (60 years ago)
Launch vehicleUnknown
Launch site
Tyuratam Missile And Space Complex (TTMTR)
Object type
Payload
Rocket body
Debris
Shape & HBRUnknown
Radar Cross SectionMedium (>0.1 m² and <1 m²)

Expand to show TLE details & history

TLE from 17 hours ago
0 SL-8 DEB
1  1549U 65020CV  25044.88848933  .00001859  00000-0  25645-2 0  9995
2  1549  56.1610 211.7543 0847032 148.3519 217.1321 12.64121104753620
Epoch: 2025-02-13T21:19Z
Definitive object data (Epoch: 2025-02-13T21:19:25.478Z)
Latitude-0.00002°
Longitude107.73998°
Altitude1,951.185 km
Speed6.674 km/s
True Right ascension14h 07m 01s
True Declination0° 00' 00"
Sunlit
Object was in daylight at TLE epoch
Visualization TLE readout
Latitude-24.50266°
Longitude88.05712°
Altitude2,072.57 km
Speed6.572 km/s
Apparent Right ascension10h 12m 50s
Apparent Declination-47° 54' 53"
Sunlit
Object is in daylight
Visualization observer readout
Local Sidereal Time16:52:10
Azimuth233.103° WSW
Elevation-34.333°
Doppler factor1
Orbital elements
Apogee altitude2,065.109 km
Perigee altitude746.463 km
Semi-major axis7,783.923 km
Eccentricity0.0847032
Inclination56.161°
RAAN211.7543°
Arg. of periapsis148.3519°
True anomaly211.73809°
Mean anomaly217.1321°
Eccentric anomaly214.39088°
Mean motion3.16042 °/min
BSTAR0.0025645
Orbital period113.91 mins
Loading maneuver chart data...
Loading historical data...
Loading historical data...
Loading historical data...
Loading historical data...
Loading historical data...
Loading historical data...
Loading historical data...

SL-8 DEB Visibility forecast

Observer location: undefined°, undefined

Span
Click to sort rows by Start time (UTC) header in descending order
Start Az.
Max El. time (UTC)
Max El. Az.
Max El.
End time (UTC)
End Az.
15 mins2025-02-14 14:36:14.476Z251.444° W2025-02-14 14:44:14.476Z312.964° NW36.973°2025-02-14 14:51:14.476Z36.645° NE
9 mins2025-02-14 16:40:14.476Z303.687° NW2025-02-14 16:45:14.476Z348.613° N20.288°2025-02-14 16:49:14.476Z31.16° NE
8 mins2025-02-14 18:42:14.476Z332.439° NNW2025-02-14 18:46:14.476Z18.205° NNE20.739°2025-02-14 18:50:14.476Z66.491° ENE
9 mins2025-02-14 20:41:14.476Z319.024° NNW2025-02-14 20:45:14.476Z4.13° NNE43.086°2025-02-14 20:50:14.476Z127.688° SE
14 mins2025-02-15 11:22:14.476Z170.393° S2025-02-15 11:29:14.476Z126.144° SE25.42°2025-02-15 11:36:14.476Z69.731° E
16 mins2025-02-15 13:19:14.476Z225.453° WSW2025-02-15 13:28:14.476Z277.914° WNW44.843°2025-02-15 13:35:14.476Z44.057° NE
|